Station Historical Data
Daily Summary for July 11, 2017 Units:  English    Metric   Both
Next Day »
Daily Weekly Monthly Yearly Custom
  High: Low: Average:
Temperature: 88.6 °F 68.8 °F 76.6 °F
Dew Point: 54.2 °F 39.5 °F 47.1 °F
Humidity: 47% 21% 36%
Wind Speed: 19.0mph 0.0mph 3.7mph
Wind Gust: 20.0mph - -
Wind- - SSE
Pressure: 29.87 in 29.80 in -
Precipitation: 0.00 in    
Historical Graphs
 
 
Tabular Data for July 11, 2017
Time Temperature Dew Point Pressure Wind Wind Speed Wind Gust Humidity Rainfall Rate (Hourly) solar Conditions
00:04 73.3 °F 49.5 °F 29.83 in ESE 9.0 mph 12.0 mph 43% 0.00 in 0.00 W/m2
00:09 73.2 °F 49.4 °F 29.83 in ESE 2.0 mph 15.0 mph 43% 0.00 in 0.00 W/m2
00:14 73.1 °F 49.3 °F 29.83 in ESE 2.0 mph 15.0 mph 43% 0.00 in 0.00 W/m2
00:19 73.1 °F 49.3 °F 29.82 in Calm   13.0 mph 43% 0.00 in 0.00 W/m2
00:24 73.0 °F 49.2 °F 29.82 in ESE 12.0 mph 12.0 mph 43% 0.00 in 0.00 W/m2
00:29 72.9 °F 49.1 °F 29.82 in East 4.0 mph 13.0 mph 43% 0.00 in 0.00 W/m2
00:34 72.8 °F 49.0 °F 29.82 in ESE 5.0 mph 12.0 mph 43% 0.00 in 0.00 W/m2
00:39 72.8 °F 49.0 °F 29.82 in ESE 13.0 mph 13.0 mph 43% 0.00 in 0.00 W/m2
00:44 72.6 °F 48.8 °F 29.82 in ESE 8.0 mph 13.0 mph 43% 0.00 in 0.00 W/m2
00:49 72.5 °F 48.8 °F 29.82 in ESE 8.0 mph 14.0 mph 43% 0.00 in 0.00 W/m2
00:54 72.4 °F 48.7 °F 29.82 in ESE 2.0 mph 13.0 mph 43% 0.00 in 0.00 W/m2
00:59 72.3 °F 48.6 °F 29.82 in ESE 4.0 mph 14.0 mph 43% 0.00 in 0.00 W/m2
01:04 72.3 °F 48.6 °F 29.82 in ESE 13.0 mph 15.0 mph 43% 0.00 in 0.00 W/m2
01:09 72.2 °F 48.5 °F 29.82 in Calm   15.0 mph 43% 0.00 in 0.00 W/m2
01:14 72.1 °F 48.4 °F 29.82 in ESE 5.0 mph 16.0 mph 43% 0.00 in 0.00 W/m2
01:19 72.1 °F 47.8 °F 29.82 in Calm   15.0 mph 42% 0.00 in 0.00 W/m2
01:25 72.1 °F 47.8 °F 29.82 in Calm   15.0 mph 42% 0.00 in 0.00 W/m2
01:30 72.0 °F 48.3 °F 29.82 in East 1.0 mph 16.0 mph 43% 0.00 in 0.00 W/m2
01:35 71.9 °F 47.6 °F 29.82 in Calm   14.0 mph 42% 0.00 in 0.00 W/m2
01:40 71.8 °F 47.5 °F 29.82 in ESE 6.0 mph 14.0 mph 42% 0.00 in 0.00 W/m2
01:45 71.8 °F 47.5 °F 29.82 in ESE 2.0 mph 16.0 mph 42% 0.00 in 0.00 W/m2
01:50 71.7 °F 47.4 °F 29.82 in Calm   16.0 mph 42% 0.00 in 0.00 W/m2
01:55 71.7 °F 46.8 °F 29.82 in Calm   13.0 mph 41% 0.00 in 0.00 W/m2
02:00 71.6 °F 47.3 °F 29.82 in ESE 11.0 mph 14.0 mph 42% 0.00 in 0.00 W/m2
02:05 71.6 °F 47.3 °F 29.82 in ESE 13.0 mph 13.0 mph 42% 0.00 in 0.00 W/m2
02:10 71.5 °F 46.6 °F 29.82 in ESE 2.0 mph 14.0 mph 41% 0.00 in 0.00 W/m2
02:15 71.5 °F 46.6 °F 29.82 in ESE 2.0 mph 14.0 mph 41% 0.00 in 0.00 W/m2
02:20 71.4 °F 46.5 °F 29.81 in ESE 2.0 mph 15.0 mph 41% 0.00 in 0.00 W/m2
02:25 71.4 °F 46.5 °F 29.81 in Calm   14.0 mph 41% 0.00 in 0.00 W/m2
02:30 71.3 °F 46.4 °F 29.81 in ESE 2.0 mph 15.0 mph 41% 0.00 in 0.00 W/m2
02:35 71.3 °F 46.4 °F 29.81 in ESE 8.0 mph 14.0 mph 41% 0.00 in 0.00 W/m2
02:40 71.2 °F 46.3 °F 29.81 in ESE 8.0 mph 15.0 mph 41% 0.00 in 0.00 W/m2
02:45 71.1 °F 45.6 °F 29.81 in ESE 9.0 mph 16.0 mph 40% 0.00 in 0.00 W/m2
02:50 71.1 °F 46.2 °F 29.81 in ESE 4.0 mph 14.0 mph 41% 0.00 in 0.00 W/m2
02:55 71.0 °F 46.1 °F 29.81 in ESE 9.0 mph 18.0 mph 41% 0.00 in 0.00 W/m2
02:57 71.0 °F 46.1 °F 29.81 in East 9.0 mph 15.0 mph 41% 0.00 in 0.00 W/m2
03:02 70.9 °F 45.4 °F 29.81 in East 12.0 mph 16.0 mph 40% 0.00 in 0.00 W/m2
03:07 70.8 °F 45.3 °F 29.81 in ESE 5.0 mph 11.0 mph 40% 0.00 in 0.00 W/m2
03:12 70.7 °F 45.2 °F 29.81 in ESE 7.0 mph 13.0 mph 40% 0.00 in 0.00 W/m2
03:17 70.7 °F 45.2 °F 29.81 in ESE 9.0 mph 13.0 mph 40% 0.00 in 0.00 W/m2
03:22 70.6 °F 45.1 °F 29.81 in ESE 7.0 mph 16.0 mph 40% 0.00 in 0.00 W/m2
03:27 70.5 °F 45.0 °F 29.81 in ESE 14.0 mph 15.0 mph 40% 0.00 in 0.00 W/m2
03:32 70.4 °F 45.6 °F 29.81 in ESE 6.0 mph 14.0 mph 41% 0.00 in 0.00 W/m2
03:37 70.4 °F 45.0 °F 29.81 in ESE 5.0 mph 12.0 mph 40% 0.00 in 0.00 W/m2
03:42 70.3 °F 44.9 °F 29.81 in ESE 7.0 mph 15.0 mph 40% 0.00 in 0.00 W/m2
03:47 70.3 °F 44.9 °F 29.81 in ESE 4.0 mph 13.0 mph 40% 0.00 in 0.00 W/m2
03:52 70.3 °F 45.5 °F 29.81 in ESE 8.0 mph 16.0 mph 41% 0.00 in 0.00 W/m2
03:57 70.2 °F 44.8 °F 29.81 in ESE 7.0 mph 15.0 mph 40% 0.00 in 0.00 W/m2
04:02 70.1 °F 44.0 °F 29.81 in Calm   20.0 mph 39% 0.00 in 0.00 W/m2
04:07 70.1 °F 44.7 °F 29.80 in ESE 5.0 mph 15.0 mph 40% 0.00 in 0.00 W/m2
04:12 70.0 °F 44.6 °F 29.80 in East 8.0 mph 20.0 mph 40% 0.00 in 0.00 W/m2
04:17 70.0 °F 44.6 °F 29.81 in ESE 11.0 mph 15.0 mph 40% 0.00 in 0.00 W/m2
04:22 69.9 °F 43.8 °F 29.81 in ESE 5.0 mph 15.0 mph 39% 0.00 in 0.00 W/m2
04:27 69.8 °F 43.8 °F 29.81 in ESE 6.0 mph 19.0 mph 39% 0.00 in 0.00 W/m2
04:32 69.8 °F 43.8 °F 29.81 in East 6.0 mph 12.0 mph 39% 0.00 in 0.00 W/m2
04:38 69.8 °F 44.4 °F 29.81 in East 2.0 mph 14.0 mph 40% 0.00 in 0.00 W/m2
04:43 69.7 °F 44.3 °F 29.81 in Calm   11.0 mph 40% 0.00 in 0.00 W/m2
04:48 69.7 °F 44.3 °F 29.81 in East 5.0 mph 11.0 mph 40% 0.00 in 0.00 W/m2
04:53 69.7 °F 43.7 °F 29.81 in East 11.0 mph 16.0 mph 39% 0.00 in 0.00 W/m2
04:58 69.7 °F 43.7 °F 29.81 in East 11.0 mph 16.0 mph 39% 0.00 in 0.00 W/m2
05:03 69.7 °F 43.7 °F 29.81 in ESE 7.0 mph 16.0 mph 39% 0.00 in 0.00 W/m2
05:08 69.7 °F 43.7 °F 29.81 in ESE 9.0 mph 13.0 mph 39% 0.00 in 0.00 W/m2
05:13 69.6 °F 44.2 °F 29.81 in SE 6.0 mph 18.0 mph 40% 0.00 in 0.00 W/m2
05:18 69.6 °F 43.6 °F 29.81 in ESE 4.0 mph 9.0 mph 39% 0.00 in 0.00 W/m2
05:23 69.6 °F 44.2 °F 29.81 in ESE 13.0 mph 13.0 mph 40% 0.00 in 0.00 W/m2
05:28 69.5 °F 43.5 °F 29.81 in ESE 4.0 mph 12.0 mph 39% 0.00 in 0.00 W/m2
05:33 69.5 °F 43.5 °F 29.81 in ESE 6.0 mph 16.0 mph 39% 0.00 in 0.00 W/m2
05:38 69.5 °F 44.2 °F 29.82 in East 10.0 mph 14.0 mph 40% 0.00 in 0.00 W/m2
05:43 69.4 °F 43.4 °F 29.82 in ESE 2.0 mph 11.0 mph 39% 0.00 in 0.00 W/m2
05:48 69.4 °F 44.1 °F 29.82 in Calm   13.0 mph 40% 0.00 in 5.00 W/m2
05:53 69.3 °F 43.3 °F 29.82 in ESE 7.0 mph 13.0 mph 39% 0.00 in 7.00 W/m2
05:58 69.3 °F 43.3 °F 29.82 in ESE 5.0 mph 11.0 mph 39% 0.00 in 9.00 W/m2
06:03 69.3 °F 43.3 °F 29.83 in ESE 7.0 mph 14.0 mph 39% 0.00 in 11.00 W/m2
06:08 69.3 °F 43.3 °F 29.82 in ESE 19.0 mph 19.0 mph 39% 0.00 in 12.00 W/m2
06:13 69.3 °F 43.3 °F 29.83 in ESE 5.0 mph 14.0 mph 39% 0.00 in 14.00 W/m2
06:18 69.3 °F 44.0 °F 29.83 in ESE 6.0 mph 13.0 mph 40% 0.00 in 19.00 W/m2
06:23 69.3 °F 44.0 °F 29.83 in East 5.0 mph 15.0 mph 40% 0.00 in 26.00 W/m2
06:28 69.2 °F 43.9 °F 29.83 in ESE 8.0 mph 18.0 mph 40% 0.00 in 37.00 W/m2
06:33 69.2 °F 43.9 °F 29.83 in East 8.0 mph 14.0 mph 40% 0.00 in 53.00 W/m2
06:38 69.0 °F 44.3 °F 29.83 in ESE 1.0 mph 20.0 mph 41% 0.00 in 62.00 W/m2
06:43 69.0 °F 44.3 °F 29.83 in Calm   14.0 mph 41% 0.00 in 81.00 W/m2
06:48 68.9 °F 44.2 °F 29.83 in ESE 9.0 mph 14.0 mph 41% 0.00 in 91.00 W/m2
06:53 68.9 °F 44.2 °F 29.83 in ESE 8.0 mph 16.0 mph 41% 0.00 in 109.00 W/m2
06:58 68.9 °F 44.9 °F 29.83 in ESE 8.0 mph 14.0 mph 42% 0.00 in 128.00 W/m2
07:03 68.8 °F 44.8 °F 29.83 in SE 11.0 mph 14.0 mph 42% 0.00 in 141.00 W/m2
07:08 68.8 °F 44.8 °F 29.83 in ESE 6.0 mph 16.0 mph 42% 0.00 in 169.00 W/m2
07:13 68.9 °F 44.9 °F 29.83 in ESE 6.0 mph 15.0 mph 42% 0.00 in 183.00 W/m2
07:18 68.9 °F 45.5 °F 29.82 in East 5.0 mph 14.0 mph 43% 0.00 in 204.00 W/m2
07:23 68.9 °F 45.5 °F 29.83 in East 1.0 mph 16.0 mph 43% 0.00 in 230.00 W/m2
07:28 68.9 °F 46.1 °F 29.83 in East 1.0 mph 15.0 mph 44% 0.00 in 241.00 W/m2
07:33 69.0 °F 45.6 °F 29.83 in ESE 5.0 mph 15.0 mph 43% 0.00 in 265.00 W/m2
07:38 69.1 °F 45.7 °F 29.83 in ESE 2.0 mph 12.0 mph 43% 0.00 in 281.00 W/m2
07:43 69.2 °F 46.4 °F 29.83 in East 13.0 mph 14.0 mph 44% 0.00 in 299.00 W/m2
07:48 69.3 °F 46.5 °F 29.83 in Calm   11.0 mph 44% 0.00 in 316.00 W/m2
07:53 69.4 °F 47.2 °F 29.83 in ESE 7.0 mph 14.0 mph 45% 0.00 in 334.00 W/m2
07:58 69.5 °F 47.2 °F 29.83 in ESE 9.0 mph 14.0 mph 45% 0.00 in 345.00 W/m2
08:04 69.6 °F 47.3 °F 29.83 in East 10.0 mph 14.0 mph 45% 0.00 in 360.00 W/m2
08:09 69.8 °F 47.5 °F 29.84 in ESE 2.0 mph 14.0 mph 45% 0.00 in 380.00 W/m2
08:14 69.9 °F 48.2 °F 29.84 in ESE 12.0 mph 15.0 mph 46% 0.00 in 397.00 W/m2
08:19 70.1 °F 48.4 °F 29.84 in East 8.0 mph 14.0 mph 46% 0.00 in 410.00 W/m2
08:24 70.3 °F 48.6 °F 29.84 in ESE 6.0 mph 11.0 mph 46% 0.00 in 420.00 W/m2
08:29 70.5 °F 48.2 °F 29.84 in ESE 1.0 mph 15.0 mph 45% 0.00 in 438.00 W/m2
08:34 70.7 °F 48.3 °F 29.84 in SE 7.0 mph 9.0 mph 45% 0.00 in 455.00 W/m2
08:39 71.0 °F 48.0 °F 29.84 in Calm   12.0 mph 44% 0.00 in 475.00 W/m2
08:44 71.2 °F 48.2 °F 29.84 in SE 6.0 mph 7.0 mph 44% 0.00 in 490.00 W/m2
08:49 71.5 °F 49.1 °F 29.84 in Calm   9.0 mph 45% 0.00 in 503.00 W/m2
08:54 71.8 °F 49.9 °F 29.84 in SE 5.0 mph 11.0 mph 46% 0.00 in 520.00 W/m2
08:59 72.1 °F 49.6 °F 29.84 in Calm   10.0 mph 45% 0.00 in 533.00 W/m2
09:04 72.4 °F 50.5 °F 29.85 in Calm   9.0 mph 46% 0.00 in 550.00 W/m2
09:05 72.5 °F 50.6 °F 29.85 in Calm   9.0 mph 46% 0.00 in 554.00 W/m2
09:10 72.7 °F 50.8 °F 29.85 in Calm   9.0 mph 46% 0.00 in 568.00 W/m2
09:15 73.0 °F 51.0 °F 29.85 in Calm   8.0 mph 46% 0.00 in 582.00 W/m2
09:20 73.3 °F 50.1 °F 29.84 in SSE 5.0 mph 9.0 mph 44% 0.00 in 596.00 W/m2
09:25 73.7 °F 52.2 °F 29.84 in Calm   7.0 mph 47% 0.00 in 612.00 W/m2
09:30 74.0 °F 50.1 °F 29.84 in Calm   9.0 mph 43% 0.00 in 622.00 W/m2
09:35 74.5 °F 49.3 °F 29.84 in SSE 8.0 mph 9.0 mph 41% 0.00 in 636.00 W/m2
09:41 74.9 °F 52.8 °F 29.84 in South 2.0 mph 7.0 mph 46% 0.00 in 649.00 W/m2
09:46 75.3 °F 53.1 °F 29.84 in Calm   7.0 mph 46% 0.00 in 663.00 W/m2
09:51 75.5 °F 51.5 °F 29.85 in Calm   6.0 mph 43% 0.00 in 677.00 W/m2
09:56 75.7 °F 51.6 °F 29.84 in Calm   7.0 mph 43% 0.00 in 689.00 W/m2
10:01 75.9 °F 51.8 °F 29.84 in South 2.0 mph 8.0 mph 43% 0.00 in 701.00 W/m2
10:06 76.2 °F 52.1 °F 29.85 in SSW 5.0 mph 6.0 mph 43% 0.00 in 715.00 W/m2
10:11 76.5 °F 54.2 °F 29.85 in SSW 3.0 mph 4.0 mph 46% 0.00 in 726.00 W/m2
10:16 76.7 °F 53.2 °F 29.85 in Calm     44% 0.00 in 738.00 W/m2
10:21 76.9 °F 50.8 °F 29.85 in South 2.0 mph 2.0 mph 40% 0.00 in 747.00 W/m2
10:26 77.1 °F 51.6 °F 29.85 in South 6.0 mph 6.0 mph 41% 0.00 in 758.00 W/m2
10:31 77.5 °F 53.3 °F 29.85 in Calm   2.0 mph 43% 0.00 in 770.00 W/m2
10:36 77.7 °F 50.1 °F 29.85 in SW 5.0 mph 5.0 mph 38% 0.00 in 784.00 W/m2
10:41 78.0 °F 50.4 °F 29.85 in Calm   2.0 mph 38% 0.00 in 793.00 W/m2
10:46 78.3 °F 50.6 °F 29.85 in Calm   5.0 mph 38% 0.00 in 803.00 W/m2
10:51 78.6 °F 50.2 °F 29.86 in South 4.0 mph 8.0 mph 37% 0.00 in 812.00 W/m2
10:56 78.9 °F 49.7 °F 29.86 in SSW 4.0 mph 7.0 mph 36% 0.00 in 823.00 W/m2
11:01 79.1 °F 48.3 °F 29.86 in Calm   2.0 mph 34% 0.00 in 831.00 W/m2
11:06 79.4 °F 48.6 °F 29.86 in Calm   4.0 mph 34% 0.00 in 838.00 W/m2
11:11 79.7 °F 49.7 °F 29.86 in SW 5.0 mph 6.0 mph 35% 0.00 in 847.00 W/m2
11:16 79.9 °F 48.3 °F 29.86 in SSE 11.0 mph 11.0 mph 33% 0.00 in 856.00 W/m2
11:21 80.0 °F 46.7 °F 29.86 in South 2.0 mph 5.0 mph 31% 0.00 in 863.00 W/m2
11:26 80.2 °F 47.7 °F 29.86 in SW 7.0 mph 8.0 mph 32% 0.00 in 874.00 W/m2
11:31 80.5 °F 47.1 °F 29.86 in South 7.0 mph 7.0 mph 31% 0.00 in 879.00 W/m2
11:36 80.7 °F 44.6 °F 29.86 in South 8.0 mph 8.0 mph 28% 0.00 in 888.00 W/m2
11:41 80.9 °F 43.8 °F 29.86 in South 6.0 mph 6.0 mph 27% 0.00 in 895.00 W/m2
11:46 81.1 °F 42.0 °F 29.86 in Calm     25% 0.00 in 898.00 W/m2
11:51 81.4 °F 41.2 °F 29.86 in Calm     24% 0.00 in 907.00 W/m2
11:56 81.8 °F 40.4 °F 29.87 in SW 1.0 mph 8.0 mph 23% 0.00 in 914.00 W/m2
12:01 82.1 °F 39.5 °F 29.87 in South 7.0 mph 13.0 mph 22% 0.00 in 916.00 W/m2
12:06 82.5 °F 39.9 °F 29.86 in SSW 10.0 mph 11.0 mph 22% 0.00 in 921.00 W/m2
12:11 82.9 °F 40.2 °F 29.86 in Calm     22% 0.00 in 926.00 W/m2
12:16 83.2 °F 42.7 °F 29.86 in SW 6.0 mph 8.0 mph 24% 0.00 in 930.00 W/m2
12:21 83.4 °F 41.8 °F 29.86 in SSE 6.0 mph 10.0 mph 23% 0.00 in 933.00 W/m2
12:26 83.7 °F 40.9 °F 29.87 in SW 2.0 mph 5.0 mph 22% 0.00 in 937.00 W/m2
12:31 84.0 °F 39.9 °F 29.86 in SSE 4.0 mph 10.0 mph 21% 0.00 in 939.00 W/m2
12:37 84.5 °F 41.5 °F 29.86 in SSW 3.0 mph 9.0 mph 22% 0.00 in 940.00 W/m2
12:42 84.7 °F 40.5 °F 29.86 in WSW 8.0 mph 8.0 mph 21% 0.00 in 944.00 W/m2
12:47 84.7 °F 41.7 °F 29.86 in WSW 5.0 mph 6.0 mph 22% 0.00 in 946.00 W/m2
12:52 84.8 °F 41.8 °F 29.86 in SSW 5.0 mph 8.0 mph 22% 0.00 in 946.00 W/m2
12:57 85.1 °F 44.3 °F 29.86 in SW 2.0 mph 5.0 mph 24% 0.00 in 947.00 W/m2
13:02 85.5 °F 41.2 °F 29.86 in SW 3.0 mph 6.0 mph 21% 0.00 in 946.00 W/m2
13:07 85.6 °F 41.2 °F 29.86 in SSW 6.0 mph 8.0 mph 21% 0.00 in 946.00 W/m2
13:12 85.4 °F 43.4 °F 29.87 in SW 7.0 mph 7.0 mph 23% 0.00 in 946.00 W/m2
13:17 85.4 °F 43.4 °F 29.86 in West 2.0 mph 6.0 mph 23% 0.00 in 944.00 W/m2
13:22 85.4 °F 44.5 °F 29.86 in SSW 3.0 mph 7.0 mph 24% 0.00 in 946.00 W/m2
13:27 85.6 °F 45.8 °F 29.86 in Calm   5.0 mph 25% 0.00 in 942.00 W/m2
13:32 85.8 °F 46.0 °F 29.86 in Calm   8.0 mph 25% 0.00 in 942.00 W/m2
13:37 86.2 °F 46.3 °F 29.86 in Calm   8.0 mph 25% 0.00 in 939.00 W/m2
13:42 86.5 °F 44.3 °F 29.86 in South 5.0 mph 10.0 mph 23% 0.00 in 937.00 W/m2
13:47 86.8 °F 45.7 °F 29.86 in SW 6.0 mph 6.0 mph 24% 0.00 in 932.00 W/m2
13:52 87.1 °F 44.8 °F 29.86 in SW 5.0 mph 11.0 mph 23% 0.00 in 928.00 W/m2
13:57 87.8 °F 45.4 °F 29.86 in Calm   8.0 mph 23% 0.00 in 923.00 W/m2
14:02 88.4 °F 44.8 °F 29.86 in SW 5.0 mph 9.0 mph 22% 0.00 in 921.00 W/m2
14:07 88.6 °F 44.9 °F 29.86 in Calm   13.0 mph 22% 0.00 in 918.00 W/m2
14:12 88.4 °F 47.1 °F 29.86 in SW 8.0 mph 11.0 mph 24% 0.00 in 912.00 W/m2
14:17 88.1 °F 46.8 °F 29.86 in WSW 7.0 mph 11.0 mph 24% 0.00 in 904.00 W/m2
14:22 87.9 °F 46.6 °F 29.86 in Calm   7.0 mph 24% 0.00 in 904.00 W/m2
14:27 87.9 °F 47.7 °F 29.86 in South 8.0 mph 12.0 mph 25% 0.00 in 896.00 W/m2
14:32 88.3 °F 47.0 °F 29.86 in Calm   9.0 mph 24% 0.00 in 889.00 W/m2
14:37 88.6 °F 47.2 °F 29.86 in SW 8.0 mph 10.0 mph 24% 0.00 in 879.00 W/m2
14:42 88.3 °F 48.1 °F 29.86 in South 8.0 mph 13.0 mph 25% 0.00 in 874.00 W/m2
14:48 88.2 °F 49.0 °F 29.86 in SW 1.0 mph 15.0 mph 26% 0.00 in 867.00 W/m2
14:53 88.2 °F 49.0 °F 29.85 in WSW 4.0 mph 9.0 mph 26% 0.00 in 861.00 W/m2
14:58 87.8 °F 48.7 °F 29.86 in SW 8.0 mph 12.0 mph 26% 0.00 in 854.00 W/m2
15:03 87.5 °F 47.4 °F 29.85 in Calm   12.0 mph 25% 0.00 in 846.00 W/m2
15:08 87.4 °F 47.3 °F 29.85 in Calm   8.0 mph 25% 0.00 in 837.00 W/m2
15:09 87.5 °F 48.4 °F 29.85 in SSW 5.0 mph 13.0 mph 26% 0.00 in 835.00 W/m2
15:14 87.6 °F 48.5 °F 29.85 in South 7.0 mph 13.0 mph 26% 0.00 in 824.00 W/m2
15:19 87.7 °F 48.6 °F 29.85 in SSW 2.0 mph 13.0 mph 26% 0.00 in 814.00 W/m2
15:24 87.8 °F 48.7 °F 29.85 in SW 3.0 mph 9.0 mph 26% 0.00 in 802.00 W/m2
15:29 87.7 °F 48.6 °F 29.85 in South 7.0 mph 9.0 mph 26% 0.00 in 796.00 W/m2
15:34 87.7 °F 47.5 °F 29.85 in SW 6.0 mph 12.0 mph 25% 0.00 in 786.00 W/m2
15:39 87.8 °F 48.7 °F 29.85 in WSW 5.0 mph 10.0 mph 26% 0.00 in 775.00 W/m2
15:44 87.8 °F 47.6 °F 29.85 in Calm   11.0 mph 25% 0.00 in 763.00 W/m2
15:49 87.6 °F 48.5 °F 29.85 in South 8.0 mph 11.0 mph 26% 0.00 in 751.00 W/m2
15:54 87.6 °F 47.5 °F 29.85 in SW 6.0 mph 9.0 mph 25% 0.00 in 740.00 W/m2
15:59 87.4 °F 46.2 °F 29.85 in WSW 6.0 mph 8.0 mph 24% 0.00 in 731.00 W/m2
16:04 87.0 °F 48.0 °F 29.85 in SW 7.0 mph 12.0 mph 26% 0.00 in 715.00 W/m2
16:09 86.8 °F 46.8 °F 29.85 in Calm   10.0 mph 25% 0.00 in 703.00 W/m2
16:14 86.7 °F 47.8 °F 29.85 in SW 6.0 mph 9.0 mph 26% 0.00 in 693.00 W/m2
16:19 86.7 °F 48.8 °F 29.85 in SSW 1.0 mph 5.0 mph 27% 0.00 in 679.00 W/m2
16:25 86.5 °F 48.6 °F 29.84 in SW 4.0 mph 12.0 mph 27% 0.00 in 668.00 W/m2
16:30 86.4 °F 48.5 °F 29.84 in Calm   12.0 mph 27% 0.00 in 654.00 W/m2
16:35 86.3 °F 46.4 °F 29.84 in SSW 1.0 mph 9.0 mph 25% 0.00 in 642.00 W/m2
16:40 86.3 °F 47.4 °F 29.84 in South 9.0 mph 10.0 mph 26% 0.00 in 626.00 W/m2
16:45 86.3 °F 47.4 °F 29.84 in Calm   10.0 mph 26% 0.00 in 613.00 W/m2
16:50 86.1 °F 47.2 °F 29.84 in South 8.0 mph 12.0 mph 26% 0.00 in 598.00 W/m2
16:55 86.1 °F 47.2 °F 29.84 in Calm   12.0 mph 26% 0.00 in 582.00 W/m2
17:00 86.1 °F 47.2 °F 29.84 in SW 3.0 mph 10.0 mph 26% 0.00 in 570.00 W/m2
17:05 85.8 °F 48.0 °F 29.84 in SW 7.0 mph 7.0 mph 27% 0.00 in 557.00 W/m2
17:10 85.6 °F 46.8 °F 29.84 in SSW 2.0 mph 10.0 mph 26% 0.00 in 540.00 W/m2
17:15 85.6 °F 46.8 °F 29.84 in SW 4.0 mph 10.0 mph 26% 0.00 in 527.00 W/m2
17:20 85.5 °F 46.7 °F 29.84 in SSW 6.0 mph 8.0 mph 26% 0.00 in 512.00 W/m2
17:25 85.5 °F 46.7 °F 29.84 in SW 5.0 mph 8.0 mph 26% 0.00 in 497.00 W/m2
17:30 85.5 °F 50.6 °F 29.84 in Calm   7.0 mph 30% 0.00 in 483.00 W/m2
17:35 85.3 °F 47.6 °F 29.84 in SW 2.0 mph 6.0 mph 27% 0.00 in 468.00 W/m2
17:40 85.0 °F 45.3 °F 29.83 in WSW 2.0 mph 10.0 mph 25% 0.00 in 454.00 W/m2
17:41 84.9 °F 46.2 °F 29.83 in SW 2.0 mph 8.0 mph 26% 0.00 in 448.00 W/m2
17:46 84.7 °F 48.0 °F 29.84 in Calm   7.0 mph 28% 0.00 in 434.00 W/m2
17:51 84.5 °F 46.9 °F 29.84 in WSW 3.0 mph 9.0 mph 27% 0.00 in 411.00 W/m2
17:56 84.3 °F 46.7 °F 29.84 in SW 2.0 mph 3.0 mph 27% 0.00 in 401.00 W/m2
18:01 84.1 °F 46.5 °F 29.84 in Calm   4.0 mph 27% 0.00 in 383.00 W/m2
18:06 84.1 °F 47.5 °F 29.84 in SW 3.0 mph 5.0 mph 28% 0.00 in 371.00 W/m2
18:11 83.9 °F 48.3 °F 29.84 in Calm   3.0 mph 29% 0.00 in 355.00 W/m2
18:16 83.8 °F 48.2 °F 29.83 in Calm   1.0 mph 29% 0.00 in 339.00 W/m2
18:21 83.6 °F 49.8 °F 29.83 in SW 4.0 mph 9.0 mph 31% 0.00 in 323.00 W/m2
18:26 83.4 °F 48.8 °F 29.83 in SSW 1.0 mph 7.0 mph 30% 0.00 in 306.00 W/m2
18:32 83.2 °F 46.7 °F 29.84 in SW 5.0 mph 10.0 mph 28% 0.00 in 290.00 W/m2
18:36 83.0 °F 50.1 °F 29.84 in Calm     32% 0.00 in 272.00 W/m2
18:41 82.7 °F 49.9 °F 29.84 in Calm     32% 0.00 in 257.00 W/m2
18:47 82.4 °F 50.4 °F 29.84 in Calm   1.0 mph 33% 0.00 in 241.00 W/m2
18:52 82.1 °F 50.2 °F 29.84 in Calm     33% 0.00 in 229.00 W/m2
18:57 81.8 °F 49.9 °F 29.84 in SW 6.0 mph 6.0 mph 33% 0.00 in 211.00 W/m2
19:02 81.6 °F 49.7 °F 29.84 in Calm     33% 0.00 in 195.00 W/m2
19:07 81.3 °F 50.3 °F 29.84 in Calm     34% 0.00 in 179.00 W/m2
19:12 81.0 °F 50.0 °F 29.84 in Calm     34% 0.00 in 162.00 W/m2
19:17 80.7 °F 50.5 °F 29.84 in Calm     35% 0.00 in 141.00 W/m2
19:22 80.4 °F 51.0 °F 29.84 in Calm     36% 0.00 in 123.00 W/m2
19:27 80.1 °F 52.2 °F 29.84 in Calm     38% 0.00 in 107.00 W/m2
19:32 79.6 °F 52.5 °F 29.84 in Calm     39% 0.00 in 90.00 W/m2
19:37 79.2 °F 52.1 °F 29.84 in Calm     39% 0.00 in 74.00 W/m2
19:42 78.8 °F 52.5 °F 29.84 in Calm     40% 0.00 in 58.00 W/m2
19:47 78.3 °F 52.7 °F 29.84 in Calm   1.0 mph 41% 0.00 in 46.00 W/m2
19:52 77.7 °F 52.2 °F 29.84 in Calm     41% 0.00 in 35.00 W/m2
19:57 77.3 °F 51.8 °F 29.84 in Calm     41% 0.00 in 26.00 W/m2
20:02 76.9 °F 51.4 °F 29.84 in Calm     41% 0.00 in 18.00 W/m2
20:07 76.5 °F 51.1 °F 29.84 in Calm     41% 0.00 in 14.00 W/m2
20:12 76.2 °F 50.8 °F 29.84 in Calm     41% 0.00 in 12.00 W/m2
20:17 75.8 °F 50.5 °F 29.84 in Calm     41% 0.00 in 11.00 W/m2
20:22 75.4 °F 50.1 °F 29.84 in Calm     41% 0.00 in 9.00 W/m2
20:27 74.9 °F 49.6 °F 29.84 in Calm     41% 0.00 in 7.00 W/m2
20:32 74.5 °F 49.3 °F 29.84 in Calm     41% 0.00 in 5.00 W/m2
20:37 74.2 °F 49.0 °F 29.84 in Calm     41% 0.00 in 0.00 W/m2
20:42 73.9 °F 48.7 °F 29.84 in Calm     41% 0.00 in 0.00 W/m2
20:47 73.7 °F 48.6 °F 29.84 in Calm     41% 0.00 in 0.00 W/m2
20:52 73.4 °F 47.6 °F 29.84 in Calm     40% 0.00 in 0.00 W/m2
20:57 73.2 °F 47.5 °F 29.84 in Calm     40% 0.00 in 0.00 W/m2
21:02 72.9 °F 47.2 °F 29.84 in Calm     40% 0.00 in 0.00 W/m2
21:07 72.7 °F 47.0 °F 29.85 in Calm     40% 0.00 in 0.00 W/m2
21:12 72.6 °F 47.6 °F 29.85 in Calm     41% 0.00 in 0.00 W/m2
21:17 72.5 °F 46.8 °F 29.85 in Calm     40% 0.00 in 0.00 W/m2
21:22 72.4 °F 46.7 °F 29.85 in Calm     40% 0.00 in 0.00 W/m2
21:27 72.3 °F 46.0 °F 29.85 in Calm   1.0 mph 39% 0.00 in 0.00 W/m2
21:32 72.3 °F 46.0 °F 29.85 in Calm     39% 0.00 in 0.00 W/m2
21:37 72.3 °F 46.0 °F 29.85 in Calm     39% 0.00 in 0.00 W/m2
21:42 72.3 °F 46.0 °F 29.85 in SSW 1.0 mph 5.0 mph 39% 0.00 in 0.00 W/m2
21:47 72.3 °F 46.0 °F 29.86 in South 2.0 mph 4.0 mph 39% 0.00 in 0.00 W/m2
21:52 72.3 °F 46.0 °F 29.86 in SSE 2.0 mph 7.0 mph 39% 0.00 in 0.00 W/m2
21:57 72.2 °F 45.2 °F 29.86 in Calm   5.0 mph 38% 0.00 in 0.00 W/m2
22:02 72.2 °F 45.2 °F 29.86 in SE 1.0 mph 7.0 mph 38% 0.00 in 0.00 W/m2
22:07 72.2 °F 45.9 °F 29.86 in SE 4.0 mph 7.0 mph 39% 0.00 in 0.00 W/m2
22:12 72.2 °F 46.6 °F 29.86 in ESE 1.0 mph 7.0 mph 40% 0.00 in 0.00 W/m2
22:17 72.1 °F 46.5 °F 29.86 in ESE 1.0 mph 7.0 mph 40% 0.00 in 0.00 W/m2
22:22 72.1 °F 47.1 °F 29.86 in ESE 5.0 mph 8.0 mph 41% 0.00 in 0.00 W/m2
22:27 72.1 °F 47.1 °F 29.86 in ESE 2.0 mph 6.0 mph 41% 0.00 in 0.00 W/m2
22:32 72.1 °F 47.1 °F 29.86 in ESE 6.0 mph 9.0 mph 41% 0.00 in 0.00 W/m2
22:37 72.1 °F 47.8 °F 29.86 in Calm   9.0 mph 42% 0.00 in 0.00 W/m2
22:42 72.1 °F 47.8 °F 29.86 in East 9.0 mph 9.0 mph 42% 0.00 in 0.00 W/m2
22:47 72.0 °F 47.7 °F 29.86 in Calm   11.0 mph 42% 0.00 in 0.00 W/m2
22:52 71.9 °F 48.2 °F 29.86 in Calm   8.0 mph 43% 0.00 in 0.00 W/m2
22:57 71.9 °F 48.2 °F 29.86 in Calm   7.0 mph 43% 0.00 in 0.00 W/m2
23:02 71.8 °F 48.1 °F 29.86 in East 1.0 mph 9.0 mph 43% 0.00 in 0.00 W/m2
23:07 71.8 °F 48.1 °F 29.86 in Calm   9.0 mph 43% 0.00 in 0.00 W/m2
23:13 71.8 °F 48.1 °F 29.86 in Calm   6.0 mph 43% 0.00 in 0.00 W/m2
23:17 71.8 °F 48.7 °F 29.86 in East 7.0 mph 9.0 mph 44% 0.00 in 0.00 W/m2
23:23 71.8 °F 48.1 °F 29.86 in Calm   8.0 mph 43% 0.00 in 0.00 W/m2
23:28 71.8 °F 48.1 °F 29.86 in East 5.0 mph 14.0 mph 43% 0.00 in 0.00 W/m2
23:33 71.8 °F 48.1 °F 29.87 in East 7.0 mph 11.0 mph 43% 0.00 in 0.00 W/m2
23:38 71.8 °F 48.1 °F 29.86 in Calm   14.0 mph 43% 0.00 in 0.00 W/m2
23:43 71.8 °F 48.7 °F 29.87 in ESE 7.0 mph 14.0 mph 44% 0.00 in 0.00 W/m2
23:48 71.7 °F 48.7 °F 29.86 in Calm   11.0 mph 44% 0.00 in 0.00 W/m2
23:53 71.6 °F 48.6 °F 29.86 in ESE 5.0 mph 11.0 mph 44% 0.00 in 0.00 W/m2
23:58 71.6 °F 47.9 °F 29.86 in Calm   11.0 mph 43% 0.00 in 0.00 W/m2
Foresthill Weather
 WU-history PHP script courtesy of   Juneau County Weather.
powered by Cumulus v1.9.3 (1059)
Ambient Weather VWS v14.00
Top Contact Website Map Copyright © 2007 - 2018 Foresthillweather.com Never base important decisions on this or any weather information obtained from the Internet